Weather History for Traverse City, MI

Change the Weather History Date:

Sunday, May 13, 2012

  Actual Average Record
Temperature  
Mean Temperature 52 °F 53 °F  
Max Temperature 70 °F 65 °F 87 °F (1961)
Min Temperature 34 °F 40 °F 25 °F (1965)
Degree Days  
Heating Degree Days 13 13  
Month to date heating degree days 128 191  
Since 1 July heating degree days 5815 7258  
Cooling Degree Days 0 0  
Month to date cooling degree days 0 0  
Year to date cooling degree days 23 3  
Growing Degree Days 2 (Base 50)    
Moisture  
Dew Point 32 °F    
Average Humidity 53    
Maximum Humidity 89    
Minimum Humidity 17    
Precipitation  
Precipitation 0.00 in 0.08 in 1.44 in (2004)
Month to date precipitation 2.03 1.07  
Year to date precipitation 10.16 10.03  
Sea Level Pressure  
Sea Level Pressure 30.20 in    
Wind  
Wind Speed 3 mph (NNE)    
Max Wind Speed 9 mph    
Max Gust Speed 13 mph    
Visibility 10 miles    
Events      
T = Trace of Precipitation, MM = Missing Value Source: NWS Daily Summary

Daily Weather History Graph

Daily Weather History Graph

Search for Another Location

Airport:

Trip Planner

Search our weather history database for the weather conditions in past years. The results will help you decide how hot, cold, wet, or windy it might be!

Date:

Astronomy

May. 13, 2012 Rise Set
Actual Time 6:15 AM EDT 9:02 PM EDT
Civil Twilight 5:42 AM EDT 9:36 PM EDT
Nautical Twilight 4:59 AM EDT 10:19 PM EDT
Astronomical Twilight 4:09 AM EDT 11:09 PM EDT
Moon 2:38 AM EDT (5/13) 2:06 PM EDT (5/13)
Length of Visible Light 15h 54m
Length of Day
14h 46m
Last Quarter, 42% of the Moon is Illuminated
May 13
Last Quarter
May 20
New
May 28
First Quarter
Jun 4
Full
Jun 11
Last Quarter

Hourly Weather History & Observations

Time (EDT) Temp. Dew Point Humidity Pressure Visibility Wind Dir Wind Speed Gust Speed Precip Events Conditions
12:53 AM 42.1 °F 34.0 °F 73% 30.26 in 10.0 mi Calm Calm - N/A   Clear
1:53 AM 39.9 °F 33.1 °F 77% 30.26 in 10.0 mi Calm Calm - N/A   Clear
2:53 AM 37.9 °F 32.0 °F 79% 30.26 in 10.0 mi Calm Calm - N/A   Clear
3:53 AM 37.0 °F 33.1 °F 86% 30.26 in 10.0 mi Calm Calm - N/A   Clear
4:53 AM 36.0 °F 32.0 °F 86% 30.26 in 10.0 mi Calm Calm - N/A   Clear
5:53 AM 35.1 °F 32.0 °F 89% 30.27 in 10.0 mi Calm Calm - N/A   Clear
6:53 AM 35.1 °F 32.0 °F 89% 30.27 in 10.0 mi Calm Calm - N/A   Partly Cloudy
7:53 AM 42.8 °F 33.8 °F 70% 30.27 in 10.0 mi Calm Calm - N/A   Partly Cloudy
8:53 AM 52.0 °F 36.0 °F 54% 30.28 in 10.0 mi Calm Calm - N/A   Partly Cloudy
9:53 AM 60.1 °F 34.0 °F 38% 30.27 in 10.0 mi Calm Calm - N/A   Partly Cloudy
10:53 AM 62.6 °F 30.2 °F 30% 30.25 in 10.0 mi NNE 5.8 mph - N/A   Clear
11:53 AM 64.9 °F 25.0 °F 22% 30.25 in 10.0 mi NNE 3.5 mph - N/A   Clear
12:53 PM 66.0 °F 27.0 °F 23% 30.23 in 10.0 mi NNE 5.8 mph - N/A   Clear
1:53 PM 68.0 °F 21.0 °F 17% 30.21 in 10.0 mi NE 8.1 mph - N/A   Clear
2:53 PM 69.1 °F 25.0 °F 19% 30.19 in 10.0 mi NNE 6.9 mph - N/A   Clear
3:53 PM 66.9 °F 32.0 °F 27% 30.17 in 10.0 mi NNE 8.1 mph - N/A   Clear
4:53 PM 66.0 °F 34.0 °F 30% 30.15 in 10.0 mi NNE 6.9 mph - N/A   Partly Cloudy
5:53 PM 66.9 °F 30.9 °F 26% 30.14 in 10.0 mi NNE 8.1 mph - N/A   Partly Cloudy
6:53 PM 66.0 °F 30.9 °F 27% 30.12 in 10.0 mi NNE 5.8 mph - N/A   Scattered Clouds
7:53 PM 64.9 °F 32.0 °F 29% 30.11 in 10.0 mi ENE 3.5 mph - N/A   Scattered Clouds
8:53 PM 60.1 °F 34.0 °F 38% 30.10 in 10.0 mi Calm Calm - N/A   Scattered Clouds
9:53 PM 54.0 °F 36.0 °F 51% 30.10 in 10.0 mi Calm Calm - N/A   Partly Cloudy
10:53 PM 48.9 °F 37.9 °F 66% 30.10 in 10.0 mi Calm Calm - N/A   Clear
11:53 PM 48.0 °F 37.0 °F 66% 30.09 in 10.0 mi Calm Calm - N/A   Clear